Regional Weather Roundup
Issued by NWS

Home | Current Version | Previous Version | Graphics & Text | Print | Product List | Glossary On
Versions: 1 2 3 4 5 6 7 8 9 10 11 12 13 14 15 16 17 18 19 20 21 22 23 24 25 26 27 28 29 30 31 32 33 34 35 36 37 38 39 40 41 42 43 44 45 46 47 48 49 50
664
ASUS44 KJAN 261410
RWRMS

MISSISSIPPI HOURLY WEATHER ROUNDUP
NATIONAL WEATHER SERVICE JACKSON MS
900 AM CDT TUE AUG 26 2014

NOTE: "FAIR: INDICATES FEW OR NO CLOUDS BELOW 12,000 FEET WITH NO
SIGNIFICANT WEATHER AND/OR OBSTRUCTIONS TO VISIBILITY.

MSZ001>002-007>008-010>013-018>021-025>028-034>036-261500-
NORTHWEST MISSISSIPPI

CITY           SKY/WX    TMP DP  RH WIND       PRES   REMARKS
CLARKSDALE     FAIR      81  73  78 CALM      30.11R
CLEVELAND      FAIR      81  73  75 SE7       30.07S
GREENWOOD      SUNNY     81  67  62 VRB6      30.09R
GREENVILLE     SUNNY     80  73  79 VRB3      30.07R
GRENADA        FAIR      79  64  61 SE5       30.11R
OLIVE BRANCH   MOSUNNY   81  73  78 S8        30.12R
OXFORD         FAIR      77  66  69 S3        30.13R
TUNICA         SUNNY     79  70  73 S6        30.11S
$$

MSZ003>006-009-014>017-022>024-029>033-037>039-261500-
NORTHEAST MISSISSIPPI

CITY           SKY/WX    TMP DP  RH WIND       PRES   REMARKS
BELMONT        CLOUDY    75  64  68 SE5       30.14R
COLUMBUS AFB   SUNNY     77  63  63 SE9       30.12R
CORINTH        PTSUNNY   77  68  73 S6        30.13R
GOLDN TRIANGLE MOSUNNY   77  61  57 SE10      30.12R
STARKVILLE     FAIR      77  63  61 SE6       30.11R
TUPELO         CLOUDY    80  64  58 S7        30.11S
$$

MSZ040-058-261500-
CENTRAL MISSISSIPPI

CITY           SKY/WX    TMP DP  RH WIND       PRES   REMARKS
JACKSON INTL   MOSUNNY   80  64  58 E6        30.07R
JACKSON HAWKNS SUNNY     80  64  58 SE7       30.08R
MERIDIAN KEY   SUNNY     78  62  57 E5        30.08R
MERIDIAN NAS   MOSUNNY   76  63  64 VRB6      30.09R
RAYMOND        FAIR      81  75  83 E8        30.07R
VICKSBURG      MOSUNNY   80  71  74 E6        30.05R
$$

MSZ059>079-261500-
SOUTH MISSISSIPPI

CITY           SKY/WX    TMP DP  RH WIND       PRES   REMARKS
BROOKHAVEN     FAIR      75  70  83 E6        30.07S
COLUMBIA       FAIR      77  68  73 MISG      30.03R
HATTIESBURG    SUNNY     78  65  63 E7        30.05R
MCCOMB         SUNNY     77  66  68 E5        30.04R
NATCHEZ        MOSUNNY   79  72  78 E6        30.05R
PINE BELT      MOSUNNY   77  63  61 E6        30.07R
$$

MSZ080>082-261500-
COASTAL MISSISSIPPI

CITY           SKY/WX    TMP DP  RH WIND       PRES   REMARKS
BAY ST LOUIS   SUNNY    N/A N/A N/A E8        30.00R
BILOXI         SUNNY     82  67  61 E12       30.00R
PASCAGOULA     SUNNY     80  67  64 E8        30.00S
GULFPORT       SUNNY     81  68  64 E10       29.99S
$$



USA.gov is the U.S. government's official web portal to all federal, state and local government web resources and services.